This is the latest recevied weather packets stored in our database for station/object N3LF. If no packets are shown the sender has not sent any weather packets the latest 10 day(s).
| Time | Temp. | Humidity | Pressure | Rain* | Wind** | Luminosity | Snow |
|---|---|---|---|---|---|---|---|
| 1787837440 | 21.11° C | 99% | 1018.4 hPa | 0 mm | - | 267 W/m² | - |
| 1787837135 | 21.11° C | 99% | 1018.3 hPa | 0 mm | - | 128 W/m² | - |
| 1787836834 | 21.11° C | 99% | 1018.2 hPa | 0 mm | - | 149 W/m² | - |
| 1787836530 | 21.11° C | 99% | 1018.1 hPa | 0 mm | - | 118 W/m² | - |
| 1787836224 | 20.56° C | 99% | 1018.3 hPa | 0 mm | - | 142 W/m² | - |
| 1787835920 | 20.56° C | 99% | 1018.2 hPa | 0 mm | - | 172 W/m² | - |
| 1787835620 | 20.56° C | 99% | 1018 hPa | 0 mm | - | 103 W/m² | - |
| 1787835320 | 20.56° C | 99% | 1018.3 hPa | 0 mm | - | 110 W/m² | - |
| 1787835015 | 20° C | 99% | 1018.1 hPa | 0 mm | - | 73 W/m² | - |
| 1787834714 | 20° C | 99% | 1018.1 hPa | 0 mm | - | 91 W/m² | - |
| 1787834409 | 20° C | 99% | 1018.1 hPa | 0 mm | - | 84 W/m² | - |
| 1787834106 | 20° C | 99% | 1018 hPa | 0 mm | - | 72 W/m² | - |
| 1787833800 | 20° C | 99% | 1017.8 hPa | 0 mm | - | 64 W/m² | - |
| 1787833495 | 20° C | 99% | 1018.2 hPa | 0 mm | - | 60 W/m² | - |
| 1787833191 | 20° C | 99% | 1018.2 hPa | 0 mm | - | 41 W/m² | - |
| 1787832887 | 20° C | 99% | 1018 hPa | 0 mm | - | 42 W/m² | - |
| 1787832582 | 19.44° C | 99% | 1018 hPa | 0 mm | - | 29 W/m² | - |
| 1787832281 | 19.44° C | 99% | 1017.7 hPa | 0 mm | - | 30 W/m² | - |
| 1787831979 | 19.44° C | 99% | 1018.1 hPa | 0 mm | - | 22 W/m² | - |
| 1787831674 | 19.44° C | 99% | 1017.8 hPa | 0 mm | - | 17 W/m² | - |
| 1787831373 | 19.44° C | 99% | 1017.6 hPa | 0 mm | - | 14 W/m² | - |
| 1787831071 | 19.44° C | 99% | 1018 hPa | 0 mm | - | 9 W/m² | - |
| 1787830769 | 19.44° C | 99% | 1017.8 hPa | 0 mm | - | 7 W/m² | - |
| 1787830468 | 19.44° C | 99% | 1017.6 hPa | 0 mm | - | 5 W/m² | - |
| 1787830168 | 19.44° C | 99% | 1017.6 hPa | 0 mm | - | 4 W/m² | - |
* Rain latest hour (hover to see other rain measurements)
** Current wind speed in m/s (hover to see current wind gust speed)